TimeEDT,TemperatureF,Dew PointF,Humidity,Sea Level PressureIn,VisibilityMPH,Wind Direction,Wind SpeedMPH,Gust SpeedMPH,PrecipitationIn,Events,Conditions,WindDirDegrees,DateUTC
12:53 AM,62.1,55.0,78,30.12,10.0,ESE,3.5,-,N/A,,Clear,110,2013-03-11 04:53:00
1:53 AM,61.0,55.0,81,30.11,10.0,ESE,6.9,-,N/A,,Clear,110,2013-03-11 05:53:00
2:53 AM,61.0,55.0,81,30.09,10.0,ESE,5.8,-,N/A,,Clear,120,2013-03-11 06:53:00
3:53 AM,59.0,55.0,87,30.06,10.0,ESE,5.8,-,N/A,,Clear,120,2013-03-11 07:53:00
4:53 AM,60.1,55.0,83,30.03,10.0,ESE,8.1,-,N/A,,Clear,110,2013-03-11 08:53:00
5:53 AM,61.0,55.9,83,30.02,10.0,SE,8.1,-,N/A,,Clear,130,2013-03-11 09:53:00
6:53 AM,61.0,55.9,83,30.02,10.0,SE,8.1,-,N/A,,Clear,140,2013-03-11 10:53:00
7:53 AM,60.8,57.2,88,30.04,10.0,SE,9.2,-,N/A,,Clear,130,2013-03-11 11:53:00
8:53 AM,64.0,57.0,78,30.04,10.0,ESE,10.4,-,N/A,,Clear,120,2013-03-11 12:53:00
9:53 AM,68.0,57.0,68,30.04,10.0,SE,18.4,21.9,N/A,,Clear,130,2013-03-11 13:53:00
10:53 AM,71.1,57.9,63,30.04,10.0,SE,18.4,23.0,N/A,,Clear,130,2013-03-11 14:53:00
11:53 AM,75.0,59.0,57,30.06,10.0,South,16.1,20.7,N/A,,Scattered Clouds,170,2013-03-11 15:53:00
12:53 PM,75.9,57.0,52,30.06,10.0,South,17.3,21.9,N/A,,Partly Cloudy,190,2013-03-11 16:53:00
1:53 PM,78.1,55.9,46,30.04,10.0,South,18.4,24.2,N/A,,Partly Cloudy,190,2013-03-11 17:53:00
2:53 PM,78.1,54.0,43,30.00,10.0,SSW,18.4,28.8,N/A,,Clear,200,2013-03-11 18:53:00
3:53 PM,78.1,55.9,46,29.97,10.0,South,17.3,23.0,N/A,,Clear,190,2013-03-11 19:53:00
4:53 PM,77.0,55.9,48,29.97,10.0,South,16.1,24.2,N/A,,Clear,190,2013-03-11 20:53:00
5:53 PM,75.0,55.9,51,29.96,10.0,South,15.0,-,N/A,,Clear,180,2013-03-11 21:53:00
6:53 PM,73.0,57.0,57,29.94,10.0,South,15.0,-,N/A,,Clear,180,2013-03-11 22:53:00
7:53 PM,71.1,57.0,61,29.91,10.0,South,15.0,23.0,N/A,,Clear,180,2013-03-11 23:53:00
8:53 PM,70.0,57.9,65,29.92,10.0,South,13.8,-,N/A,,Clear,170,2013-03-12 00:53:00
9:53 PM,70.0,57.9,65,29.94,10.0,South,13.8,-,N/A,,Clear,170,2013-03-12 01:53:00
10:53 PM,70.0,59.0,68,29.94,10.0,South,15.0,-,N/A,,Clear,180,2013-03-12 02:53:00
11:53 PM,70.0,60.1,71,29.93,10.0,South,13.8,-,N/A,,Clear,190,2013-03-12 03:53:00